Regional Weather Roundup
Issued by NWS

Home | Current Version | Previous Version | Text Only | Print | Product List | Glossary Off
Versions: 1 2 3 4 5 6 7 8 9 10 11 12 13 14 15 16 17 18 19 20 21 22 23 24 25 26 27 28

000
ASUS45 KPSR 211310
RWRAZ

ARIZONA HOURLY REGIONAL WEATHER ROUNDUP
NATIONAL WEATHER SERVICE PHOENIX AZ
600 AM MST MON AUG 21 2017

NOTE: FAIR INDICATES FEW OR NO CLOUDS BELOW 12,000 FEET WITH NO
SIGNIFICANT WEATHER AND/OR OBSTRUCTIONS TO VISIBILITY.

AZZ001>003-036-211400-
NORTHWEST ARIZONA

CITY           SKY/WX    TMP DP  RH WIND       PRES   REMARKS
BULLHEAD CITY  RAIN      84  66  54 E7        29.87R
KINGMAN        MOCLDY    75  52  44 SE6       30.07R
$$

AZZ004>008-015-016-018-211400-
NORTH CENTRAL ARIZONA

CITY           SKY/WX    TMP DP  RH WIND       PRES   REMARKS
GRAND CANYON   CLOUDY    57  54  89 CALM      30.28S
WILLIAMS       CLOUDY    55  52  88 CALM      30.29R
PRESCOTT       PTCLDY    60  54  80 CALM      30.18R
FLAGSTAFF      CLOUDY    54  52  93 CALM      30.30R
PAYSON           N/A     61  50  67 E5        30.19R
PAGE           PTCLDY    74  44  34 S5        30.10R
$$

AZZ009>014-017-211400-
NORTHEAST ARIZONA

CITY           SKY/WX    TMP DP  RH WIND       PRES   REMARKS
WINSLOW        MOCLDY    64  52  64 SE5       30.17R
SAINT JOHNS    CLEAR     57  54  89 CALM      30.21R
WINDOW ROCK    MOCLDY    51  48  89 CALM      30.30R
SHOW LOW       PTCLDY    57  52  82 S9        30.26R
$$

AZZ540-542>544-546-548-211400-
GREATER PHOENIX AREA

CITY           SKY/WX    TMP DP  RH WIND       PRES   REMARKS
PHOENIX        MOCLDY    86  56  35 SE7       29.87S
BUCKEYE        MOCLDY    77  59  53 S3        29.89R
LUKE AFB       MOCLDY    84  60  45 CALM      29.87S
DEER VALLEY    PTCLDY    81  56  42 E5        29.91R
SCOTTSDALE     PTCLDY    83  57  41 CALM      29.93R
MESA-FALCON    PTCLDY    82  57  42 NE6       29.91
MESA-GATEWAY   PTCLDY    79  57  47 SE5       29.91R
CHANDLER       PTCLDY    82  55  39 SW6       29.90
$$

AZZ539-553-211400-
SOUTHWEST MARICOPA COUNTY AND PINAL COUNTY

CITY           SKY/WX    TMP DP  RH WIND       PRES   REMARKS
CASA GRANDE    PTCLDY    81  58  45 E8        29.93R
GILA BEND      MOCLDY    83  47  28 CALM      29.86R
$$

AZZ503-504-507>509-211400-
SOUTHEAST ARIZONA

CITY           SKY/WX    TMP DP  RH WIND       PRES   REMARKS
TUCSON         CLEAR     75  55  50 SE9       30.01R
DAVIS-MONTHAN  PTCLDY    74  56  54 SE9       30.00R
RYAN FIELD     CLEAR     73  55  53 CALM      30.01
NOGALES        CLEAR     64  58  80 NE5       30.10R
SIERRA VISTA   CLEAR     63  53  69 S5        30.16R
DOUGLAS        CLEAR     62  59  90 S3        30.13R
SAFFORD        CLEAR     65  59  81 SE7       30.05R
$$

AZZ532-211400-
SOUTHWEST ARIZONA

CITY           SKY/WX    TMP DP  RH WIND       PRES   REMARKS
YUMA           PTCLDY    84  64  50 S7        29.81R
$$

CAZ041-043-047-048-061-525>527-560>570-211400-
SOUTHERN CALIFORNIA

CITY           SKY/WX    TMP DP  RH WIND       PRES   REMARKS
DOWNTOWN L.A.  CLOUDY    70  60  70 CALM      29.96R
L.A. AIRPORT   MOCLDY    69  60  73 SE6       29.96R
SAN DIEGO      MOCLDY    70  60  70 NW3       29.97R
BURBANK        CLOUDY    65  58  78 N3        29.97R
ONTARIO        CLOUDY    65  60  84 VRB3      29.98R
RIVERSIDE      CLOUDY    65  61  87 CALM      29.98R
PALM SPRINGS   CLEAR     77  58  51 VRB5      29.85R
EL CENTRO NAS  PTCLDY    75  43  31 N6        29.83R
IMPERIAL       CLEAR     74  53  48 CALM      29.80R
BLYTHE         PTCLDY    83  54  36 CALM      29.82R
NEEDLES        LGT RAIN  86  68  54 CALM      29.87R
$$

NVZ020-UTZ003-211400-
SOUTHERN NEVADA-UTAH

CITY           SKY/WX    TMP DP  RH WIND       PRES   REMARKS
LAS VEGAS      CLOUDY    87  50  27 SW9       29.96R
SALT LAKE CITY PTCLDY    69  43  38 E6        30.08R
$$

NMZ009-TXZ055-211400-
NEW MEXICO-WEST TEXAS

CITY           SKY/WX    TMP DP  RH WIND       PRES   REMARKS
ALBUQUERQUE    CLOUDY    61  61 100 SW3       30.22R
EL PASO        PTCLDY    68  66  93 CALM      30.14R
$$


........................KEY........................
SKY/WX - SKY CONDITION/WEATHER
TMP    - TEMPERATURE IN FAHRENHEIT
DP     - DEW POINT IN FAHRENHEIT
RH     - RELATIVE HUMIDITY IN PERCENT
WIND   - DIRECTION AND SPEED IN MILES PER HOUR (MPH)
VRB    - VARIABLE WIND DIRECTION
PRES   - MEAN SEA LEVEL PRESSURE IN INCHES OF MERCURY
         F - FALLING PRESSURE   R - RISING PRESSURE
         S - STEADY PRESSURE
VSB    - VISIBILITY IN MILES
HX     - HEAT INDEX IN FAHRENHEIT
WCI    - WIND CHILL INDEX IN FAHRENHEIT
TC     - TEMPERATURE IN CELSIUS WHICH IS ALSO KNOWN AS
         TEMPERATURE IN CENTIGRADE
AFB    - AIR FORCE BASE
         LUKE AFB IS LUKE AIR FORCE BASE
         DAVIS-MONTHAN IS DAVIS-MONTHAN AIR FORCE BASE
NAS    - NAVAL AIR STATION
         EL CENTRO NAS IS EL CENTRO NAVAL AIR STATION
N/A    - NOT AVAILABLE





USA.gov is the U.S. government's official web portal to all federal, state and local government web resources and services.